Jamestown, ND

12:46 PM CDT on April 26, 2017 (GMT -0500)
Jamestown Municipal

Weather History for KJMS - February, 2012

Change the Weather History Date:

Sunday, February 19, 2012

  Actual Average Record
Temperature  
Mean Temperature 31 °F 16 °F  
Max Temperature 43 °F 26 °F 52 °F (1981)
Min Temperature 18 °F 7 °F -36 °F (1929)
Degree Days  
Heating Degree Days 34 49  
Month to date heating degree days 789 978  
Since 1 July heating degree days 5144 6340  
Cooling Degree Days 0 0  
Month to date cooling degree days 0 0  
Year to date cooling degree days 0 0  
Moisture  
Dew Point 20 °F    
Average Humidity 66    
Maximum Humidity 88    
Minimum Humidity 43    
Precipitation  
Precipitation 0.00 in 0.02 in 0.65 in (1924)
Month to date precipitation T 0.23  
Year to date precipitation 0.10 0.68  
Sea Level Pressure  
Sea Level Pressure 29.88 in    
Wind  
Wind Speed 8 mph (SSE)    
Max Wind Speed 17 mph    
Max Gust Speed 22 mph    
Visibility 10 miles    
Events      
T = Trace of Precipitation, MM = Missing Value Source: NWS Daily Summary

Daily Weather History Graph

Daily Weather History Graph

Search for Another Location

Airport or City:

Trip Planner

Search our weather history database for the weather conditions in past years. The results will help you decide how hot, cold, wet, or windy it might be!

Date:

Astronomy

Feb. 19, 2012 Rise Set
Actual Time 7:33 AM CST 6:04 PM CST
Civil Twilight 7:02 AM CST 6:35 PM CST
Nautical Twilight 6:26 AM CST 7:11 PM CST
Astronomical Twilight 5:51 AM CST 7:46 PM CST
Moon 6:01 AM CST (2/19) 4:02 PM CST (2/19)
Length of Visible Light 11h 33m
Length of Day
10h 31m
Waning Crescent, 5% of the Moon is Illuminated
Feb 19
Waning Crescent
Feb 21
New
Feb 29
First Quarter
Mar 8
Full
Mar 14
Last Quarter

Hourly Weather History & Observations

Time (CST) Temp. Windchill Dew Point Humidity Pressure Visibility Wind Dir Wind Speed Gust Speed Precip Events Conditions
12:56 AM 25.0 °F 18.1 °F 17.1 °F 72% 29.97 in 10.0 mi South 5.8 mph - N/A   Mostly Cloudy
1:56 AM 27.0 °F 18.0 °F 18.0 °F 69% 29.95 in 10.0 mi SSE 9.2 mph - N/A   Mostly Cloudy
2:56 AM 24.1 °F 14.4 °F 17.1 °F 75% 29.94 in 10.0 mi SSE 9.2 mph - N/A   Partly Cloudy
3:56 AM 21.0 °F 11.4 °F 17.1 °F 85% 29.93 in 10.0 mi SSE 8.1 mph - N/A   Clear
4:56 AM 21.0 °F 13.4 °F 17.1 °F 85% 29.92 in 10.0 mi SSE 5.8 mph - N/A   Clear
5:56 AM 19.0 °F 9.0 °F 16.0 °F 88% 29.93 in 10.0 mi South 8.1 mph - N/A   Clear
6:56 AM 19.0 °F 10.0 °F 16.0 °F 88% 29.93 in 10.0 mi SSE 6.9 mph - N/A   Clear
7:56 AM 19.0 °F 10.0 °F 16.0 °F 88% 29.93 in 10.0 mi SSE 6.9 mph - N/A   Clear
8:56 AM 23.0 °F 13.1 °F 19.0 °F 85% 29.93 in 10.0 mi SSE 9.2 mph - N/A   Clear
9:56 AM 27.0 °F 15.2 °F 21.0 °F 78% 29.92 in 10.0 mi South 15.0 mph - N/A   Clear
10:56 AM 30.9 °F 21.7 °F 21.9 °F 69% 29.91 in 10.0 mi South 11.5 mph - N/A   Clear
11:56 AM 35.6 °F 27.1 °F 23.0 °F 60% 29.82 in 10.0 mi South 12.7 mph - N/A   Clear
12:56 PM 37.0 °F 29.3 °F 23.0 °F 57% 29.86 in 10.0 mi SSE 11.5 mph - N/A   Clear
1:56 PM 41.0 °F 34.3 °F 23.0 °F 49% 29.83 in 10.0 mi SSE 11.5 mph - N/A   Clear
2:56 PM 41.0 °F 34.3 °F 23.0 °F 49% 29.82 in 10.0 mi SSE 11.5 mph - N/A   Clear
3:56 PM 42.1 °F 34.5 °F 21.9 °F 45% 29.83 in 10.0 mi SSE 15.0 mph - N/A   Clear
4:56 PM 41.0 °F 34.3 °F 21.9 °F 47% 29.83 in 10.0 mi South 11.5 mph - N/A   Clear
5:56 PM 35.1 °F 31.0 °F 21.0 °F 57% 29.84 in 10.0 mi SSE 4.6 mph - N/A   Clear
6:56 PM 30.0 °F - 17.1 °F 59% 29.85 in 10.0 mi Calm Calm - N/A   Clear
7:56 PM 28.0 °F 24.2 °F 18.0 °F 66% 29.85 in 10.0 mi East 3.5 mph - N/A   Clear
8:56 PM 27.0 °F 19.5 °F 18.0 °F 69% 29.84 in 10.0 mi East 6.9 mph - N/A   Clear
9:56 PM 26.1 °F 20.5 °F 18.0 °F 71% 29.83 in 10.0 mi ESE 4.6 mph - N/A   Clear
10:56 PM 28.9 °F 22.8 °F 21.9 °F 75% 29.81 in 10.0 mi SE 5.8 mph - N/A   Clear
11:56 PM 28.9 °F 23.9 °F 23.0 °F 78% 29.81 in 10.0 mi South 4.6 mph - N/A   Clear